Tracking 30101 objects as of 13-Dec-2024
HD Live streaming from Space Station
objects crossing your sky now

STARLINK-6205

Track STARLINK-6205 now!
10-day predictions
STARLINK-6205 is classified as:


NORAD ID: 56898
Int'l Code: 2023-083Y
Perigee: 565.4 km
Apogee: 567.0 km
Inclination: 43.0 °
Period: 95.8 minutes
Semi major axis: 6937 km
RCS: Unknown
Launch date: June 12, 2023
Source: United States (US)
Launch site: AIR FORCE EASTERN TEST RANGE (AFETR)
Your satellite tracking list
Your tracking list is empty




NASA's NSSDC Master Catalog

Two Line Element Set (TLE):
1 56898U 23083Y   24347.36536958  .00000103  00000-0  22681-4 0  9994
2 56898  43.0033  19.1836 0001151 272.7816  87.2894 15.02532732 83740
Source of the keplerian elements: AFSPC